Location: Observatorio Ernesto Juarez Davis
(29.2175°N, 110.7606°W)
Time: 09:30:06
(UTC-07:00)

Hubble Space Telescope - Pass Details

Date: 28 July 2019
Orbit: 536 x 540 km, 28.5° (Epoch: 23 August)

Event Time Altitude Azimuth Distance (km) Brightness Sun altitude
Exits shadow 04:42:03 19° 238° (WSW) 1,300 2.1 -12.4°
Maximum altitude 04:44:46 53° 167° (SSE) 660 1.1 -11.9°
Drops below altitude 10° 04:48:47 10° 90° (E) 1,783 4.5 -11.1°
Sets 04:51:05 0° 85° (E) 2,674 5.7 -10.7°
